Time,TemperatureF,DewpointF,PressureIn,WindDirection,WindDirectionDegrees,WindSpeedMPH,WindSpeedGustMPH,Humidity,HourlyPrecipIn,Conditions,Clouds,dailyrainin,SoftwareType,DateUTC
2013-01-24 00:00:00,25.8,20.5,29.99,West,268,0.0,0.0,80,0.00,,---,0.00,VWS V14.01,2013-01-24 05:00:00,
2013-01-24 00:01:00,25.8,20.5,29.99,West,268,0.0,0.0,80,0.00,,---,0.00,VWS V14.01,2013-01-24 05:01:00,
2013-01-24 00:02:00,25.8,20.5,29.99,West,268,0.0,0.0,80,0.00,,---,0.00,VWS V14.01,2013-01-24 05:02:00,
2013-01-24 00:03:00,25.8,20.5,29.99,West,268,0.0,0.0,80,0.00,,---,0.00,VWS V14.01,2013-01-24 05:03:00,
2013-01-24 00:08:00,25.8,20.2,29.98,West,268,0.0,0.0,79,0.00,,---,0.00,VWS V14.01,2013-01-24 05:08:00,
2013-01-24 00:13:00,25.9,20.0,29.98,West,268,0.0,0.0,78,0.00,,---,0.00,VWS V14.01,2013-01-24 05:13:00,
2013-01-24 00:18:00,26.0,20.1,29.99,West,268,0.0,0.0,78,0.00,,---,0.00,VWS V14.01,2013-01-24 05:18:00,
2013-01-24 00:23:00,26.1,20.5,29.98,West,268,0.0,0.0,79,0.00,,---,0.00,VWS V14.01,2013-01-24 05:23:00,
2013-01-24 00:28:00,26.3,21.0,29.97,West,268,0.0,0.0,80,0.00,,---,0.00,VWS V14.01,2013-01-24 05:28:00,
2013-01-24 00:30:00,26.3,21.3,29.97,West,268,0.0,0.0,81,0.00,,---,0.00,VWS V14.01,2013-01-24 05:30:00,
2013-01-24 00:33:00,26.3,21.0,29.97,West,268,0.0,0.0,80,0.00,,---,0.00,VWS V14.01,2013-01-24 05:33:00,
2013-01-24 00:38:00,26.4,21.1,29.97,West,268,0.0,0.0,80,0.00,,---,0.00,VWS V14.01,2013-01-24 05:38:00,
2013-01-24 00:43:00,26.4,21.1,29.97,West,268,0.0,0.0,80,0.00,,---,0.00,VWS V14.01,2013-01-24 05:43:00,
2013-01-24 00:48:00,26.4,21.1,29.96,West,268,0.0,0.0,80,0.00,,---,0.00,VWS V14.01,2013-01-24 05:48:00,
2013-01-24 00:53:00,26.4,21.4,29.96,West,268,0.0,0.0,81,0.00,,---,0.00,VWS V14.01,2013-01-24 05:53:00,
2013-01-24 00:58:00,26.4,21.4,29.96,West,268,0.0,0.0,81,0.00,,---,0.00,VWS V14.01,2013-01-24 05:58:00,
2013-01-24 01:00:00,26.5,21.5,29.96,West,268,0.0,0.0,81,0.00,,---,0.00,VWS V14.01,2013-01-24 06:00:00,
2013-01-24 01:03:00,26.5,21.5,29.96,West,268,0.0,0.0,81,0.00,,---,0.00,VWS V14.01,2013-01-24 06:03:00,
2013-01-24 01:08:00,26.5,21.5,29.96,West,268,0.0,0.0,81,0.00,,---,0.00,VWS V14.01,2013-01-24 06:08:00,
2013-01-24 01:13:00,26.7,21.4,29.96,West,268,0.0,0.0,80,0.00,,---,0.00,VWS V14.01,2013-01-24 06:13:00,
2013-01-24 01:18:00,26.7,21.7,29.95,West,268,0.0,0.0,81,0.00,,---,0.00,VWS V14.01,2013-01-24 06:18:00,
2013-01-24 01:23:00,26.8,21.8,29.95,West,268,0.0,0.0,81,0.00,,---,0.00,VWS V14.01,2013-01-24 06:23:00,
2013-01-24 01:28:00,26.9,21.9,29.96,West,268,0.0,0.0,81,0.00,,---,0.00,VWS V14.01,2013-01-24 06:28:00,
2013-01-24 01:30:00,26.9,21.9,29.95,West,268,0.0,0.0,81,0.00,,---,0.00,VWS V14.01,2013-01-24 06:30:00,
2013-01-24 01:33:00,27.0,22.0,29.95,West,268,0.0,0.0,81,0.00,,---,0.00,VWS V14.01,2013-01-24 06:33:00,
2013-01-24 01:38:00,27.0,22.0,29.95,West,268,0.0,0.0,81,0.00,,---,0.00,VWS V14.01,2013-01-24 06:38:00,
2013-01-24 01:43:00,27.0,22.2,29.95,West,268,0.0,2.0,82,0.00,,---,0.00,VWS V14.01,2013-01-24 06:43:00,
2013-01-24 01:48:00,27.1,22.6,29.95,West,268,0.0,2.0,83,0.00,,---,0.00,VWS V14.01,2013-01-24 06:48:00,
2013-01-24 01:53:00,27.1,22.6,29.95,West,268,0.0,2.0,83,0.00,,---,0.00,VWS V14.01,2013-01-24 06:53:00,
2013-01-24 01:58:00,27.1,22.6,29.95,West,268,0.0,2.0,83,0.00,,---,0.00,VWS V14.01,2013-01-24 06:58:00,
2013-01-24 02:00:00,27.1,22.6,29.95,West,268,0.0,2.0,83,0.00,,---,0.00,VWS V14.01,2013-01-24 07:00:00,
2013-01-24 02:03:00,27.1,22.6,29.95,West,268,0.0,0.0,83,0.00,,---,0.00,VWS V14.01,2013-01-24 07:03:00,
2013-01-24 02:08:00,27.1,22.4,29.95,West,268,0.0,1.0,82,0.00,,---,0.00,VWS V14.01,2013-01-24 07:08:00,
2013-01-24 02:13:00,27.2,22.4,29.94,West,268,0.0,1.0,82,0.00,,---,0.00,VWS V14.01,2013-01-24 07:13:00,
2013-01-24 02:18:00,27.2,22.4,29.94,West,268,0.0,1.0,82,0.00,,---,0.00,VWS V14.01,2013-01-24 07:18:00,
2013-01-24 02:23:00,27.1,22.4,29.94,West,268,0.0,1.0,82,0.00,,---,0.00,VWS V14.01,2013-01-24 07:23:00,
2013-01-24 02:28:00,27.1,22.4,29.94,West,268,0.0,1.0,82,0.00,,---,0.00,VWS V14.01,2013-01-24 07:28:00,
2013-01-24 02:30:00,27.0,22.2,29.94,West,268,0.0,1.0,82,0.00,,---,0.00,VWS V14.01,2013-01-24 07:30:00,
2013-01-24 02:33:00,26.9,22.1,29.94,West,268,0.0,0.0,82,0.00,,---,0.00,VWS V14.01,2013-01-24 07:33:00,
2013-01-24 02:38:00,26.9,21.9,29.94,West,268,0.0,0.0,81,0.00,,---,0.00,VWS V14.01,2013-01-24 07:38:00,
2013-01-24 02:43:00,26.8,22.0,29.94,West,268,0.0,0.0,82,0.00,,---,0.00,VWS V14.01,2013-01-24 07:43:00,
2013-01-24 02:48:00,26.7,22.0,29.94,West,268,0.0,0.0,82,0.00,,---,0.00,VWS V14.01,2013-01-24 07:48:00,
2013-01-24 02:53:00,26.7,22.0,29.94,West,268,0.0,0.0,82,0.00,,---,0.00,VWS V14.01,2013-01-24 07:53:00,
2013-01-24 02:58:00,26.6,21.9,29.93,West,268,0.0,0.0,82,0.00,,---,0.00,VWS V14.01,2013-01-24 07:58:00,
2013-01-24 03:00:00,26.5,21.8,29.93,West,268,0.0,0.0,82,0.00,,---,0.00,VWS V14.01,2013-01-24 08:00:00,
2013-01-24 03:03:00,26.5,21.8,29.93,West,268,0.0,0.0,82,0.00,,---,0.00,VWS V14.01,2013-01-24 08:03:00,
2013-01-24 03:08:00,26.3,21.6,29.93,West,268,0.0,0.0,82,0.00,,---,0.00,VWS V14.01,2013-01-24 08:08:00,
2013-01-24 03:13:00,26.3,21.6,29.93,West,268,0.0,0.0,82,0.00,,---,0.00,VWS V14.01,2013-01-24 08:13:00,
2013-01-24 03:18:00,26.2,21.8,29.93,West,268,0.0,0.0,83,0.00,,---,0.00,VWS V14.01,2013-01-24 08:18:00,
2013-01-24 03:23:00,26.0,21.3,29.93,West,268,0.0,1.0,82,0.00,,---,0.00,VWS V14.01,2013-01-24 08:23:00,
2013-01-24 03:28:00,26.0,21.6,29.93,West,268,0.0,1.0,83,0.00,,---,0.00,VWS V14.01,2013-01-24 08:28:00,
2013-01-24 03:30:00,25.9,21.5,29.93,West,268,0.0,1.0,83,0.00,,---,0.00,VWS V14.01,2013-01-24 08:30:00,
2013-01-24 03:33:00,25.9,21.5,29.93,West,268,0.0,0.0,83,0.00,,---,0.00,VWS V14.01,2013-01-24 08:33:00,
2013-01-24 03:38:00,25.8,21.4,29.92,West,268,0.0,0.0,83,0.00,,---,0.00,VWS V14.01,2013-01-24 08:38:00,
2013-01-24 03:43:00,25.7,21.3,29.93,West,268,0.0,0.0,83,0.00,,---,0.00,VWS V14.01,2013-01-24 08:43:00,
2013-01-24 03:48:00,25.7,21.5,29.92,West,268,0.0,0.0,84,0.00,,---,0.00,VWS V14.01,2013-01-24 08:48:00,
2013-01-24 03:53:00,25.7,21.8,29.92,West,268,0.0,0.0,85,0.00,,---,0.00,VWS V14.01,2013-01-24 08:53:00,
2013-01-24 03:58:00,25.7,21.8,29.92,West,268,0.0,0.0,85,0.00,,---,0.00,VWS V14.01,2013-01-24 08:58:00,
2013-01-24 04:00:00,25.8,21.9,29.92,West,268,0.0,0.0,85,0.00,,---,0.00,VWS V14.01,2013-01-24 09:00:00,
2013-01-24 04:03:00,25.8,22.2,29.92,West,268,0.0,0.0,86,0.00,,---,0.00,VWS V14.01,2013-01-24 09:03:00,
2013-01-24 04:08:00,25.9,22.3,29.91,West,268,0.0,0.0,86,0.00,,---,0.00,VWS V14.01,2013-01-24 09:08:00,
2013-01-24 04:13:00,26.0,22.4,29.91,West,268,0.0,0.0,86,0.00,,---,0.00,VWS V14.01,2013-01-24 09:13:00,
2013-01-24 04:18:00,26.1,22.8,29.91,West,268,0.0,0.0,87,0.00,,---,0.00,VWS V14.01,2013-01-24 09:18:00,
2013-01-24 04:23:00,26.2,22.9,29.91,West,268,0.0,0.0,87,0.00,,---,0.00,VWS V14.01,2013-01-24 09:23:00,
2013-01-24 04:28:00,26.3,23.0,29.91,West,268,0.0,0.0,87,0.00,,---,0.00,VWS V14.01,2013-01-24 09:28:00,
2013-01-24 04:30:00,26.4,23.1,29.91,West,268,0.0,0.0,87,0.00,,---,0.00,VWS V14.01,2013-01-24 09:30:00,
2013-01-24 04:33:00,26.4,23.1,29.91,West,268,0.0,0.0,87,0.00,,---,0.00,VWS V14.01,2013-01-24 09:33:00,
2013-01-24 04:38:00,26.6,23.0,29.91,West,268,0.0,0.0,86,0.00,,---,0.00,VWS V14.01,2013-01-24 09:38:00,
2013-01-24 04:43:00,26.7,23.4,29.91,West,268,0.0,0.0,87,0.00,,---,0.00,VWS V14.01,2013-01-24 09:43:00,
2013-01-24 04:48:00,26.9,23.3,29.91,West,268,0.0,0.0,86,0.00,,---,0.00,VWS V14.01,2013-01-24 09:48:00,
2013-01-24 04:53:00,27.0,23.4,29.91,West,268,0.0,0.0,86,0.00,,---,0.00,VWS V14.01,2013-01-24 09:53:00,
2013-01-24 04:58:00,27.2,23.6,29.92,West,268,0.0,0.0,86,0.00,,---,0.00,VWS V14.01,2013-01-24 09:58:00,
2013-01-24 05:00:00,27.2,23.6,29.92,West,268,0.0,0.0,86,0.00,,---,0.00,VWS V14.01,2013-01-24 10:00:00,
2013-01-24 05:03:00,27.3,23.7,29.92,West,268,0.0,0.0,86,0.00,,---,0.00,VWS V14.01,2013-01-24 10:03:00,
2013-01-24 05:08:00,27.4,23.8,29.92,West,268,0.0,0.0,86,0.00,,---,0.00,VWS V14.01,2013-01-24 10:08:00,
2013-01-24 05:13:00,27.6,24.0,29.92,West,268,0.0,1.0,86,0.00,,---,0.00,VWS V14.01,2013-01-24 10:13:00,
2013-01-24 05:18:00,27.8,24.2,29.93,West,268,0.0,1.0,86,0.00,,---,0.00,VWS V14.01,2013-01-24 10:18:00,
2013-01-24 05:23:00,28.0,24.4,29.93,West,268,0.0,1.0,86,0.00,,---,0.00,VWS V14.01,2013-01-24 10:23:00,
2013-01-24 05:28:00,28.1,24.5,29.93,West,268,0.0,1.0,86,0.00,,---,0.00,VWS V14.01,2013-01-24 10:28:00,
2013-01-24 05:30:00,28.3,24.4,29.93,West,268,0.0,1.0,85,0.00,,---,0.00,VWS V14.01,2013-01-24 10:30:00,
2013-01-24 05:33:00,28.3,24.7,29.93,West,268,0.0,0.0,86,0.00,,---,0.00,VWS V14.01,2013-01-24 10:33:00,
2013-01-24 05:38:00,28.4,24.5,29.93,West,268,0.0,0.0,85,0.00,,---,0.00,VWS V14.01,2013-01-24 10:38:00,
2013-01-24 05:43:00,28.5,24.6,29.93,West,268,0.0,0.0,85,0.00,,---,0.00,VWS V14.01,2013-01-24 10:43:00,
2013-01-24 05:48:00,28.6,24.7,29.93,West,268,0.0,0.0,85,0.00,,---,0.00,VWS V14.01,2013-01-24 10:48:00,
2013-01-24 05:53:00,28.7,24.8,29.93,West,268,0.0,0.0,85,0.00,,---,0.00,VWS V14.01,2013-01-24 10:53:00,
2013-01-24 05:58:00,28.7,24.8,29.94,West,268,0.0,0.0,85,0.00,,---,0.00,VWS V14.01,2013-01-24 10:58:00,
2013-01-24 06:00:00,28.7,25.0,29.94,West,268,0.0,0.0,86,0.00,,---,0.00,VWS V14.01,2013-01-24 11:00:00,
2013-01-24 06:03:00,28.8,25.1,29.94,West,268,0.0,0.0,86,0.00,,---,0.00,VWS V14.01,2013-01-24 11:03:00,
2013-01-24 06:08:00,28.9,25.2,29.95,West,268,0.0,1.0,86,0.00,,---,0.00,VWS V14.01,2013-01-24 11:08:00,
2013-01-24 06:13:00,28.9,25.2,29.95,West,268,0.0,1.0,86,0.00,,---,0.00,VWS V14.01,2013-01-24 11:13:00,
2013-01-24 06:18:00,29.2,25.3,29.96,West,268,0.0,1.0,85,0.00,,---,0.00,VWS V14.01,2013-01-24 11:18:00,
2013-01-24 06:23:00,29.4,25.7,29.96,West,268,0.0,1.0,86,0.00,,---,0.00,VWS V14.01,2013-01-24 11:23:00,
2013-01-24 06:28:00,29.6,25.9,29.97,West,268,0.0,1.0,86,0.00,,---,0.00,VWS V14.01,2013-01-24 11:28:00,
2013-01-24 06:30:00,30.0,26.0,29.97,West,268,0.0,1.0,85,0.00,,---,0.00,VWS V14.01,2013-01-24 11:30:00,
2013-01-24 06:33:00,30.2,26.2,29.98,West,268,0.0,2.0,85,0.00,,---,0.00,VWS V14.01,2013-01-24 11:33:00,
2013-01-24 06:38:00,30.6,26.6,29.98,West,268,0.0,2.0,85,0.00,,---,0.00,VWS V14.01,2013-01-24 11:38:00,
2013-01-24 06:43:00,31.2,26.6,29.98,WNW,291,0.0,2.0,83,0.00,,---,0.00,VWS V14.01,2013-01-24 11:43:00,
2013-01-24 06:48:00,31.7,26.8,29.99,South,179,0.0,2.0,82,0.00,,---,0.00,VWS V14.01,2013-01-24 11:48:00,
2013-01-24 06:53:00,32.4,26.9,29.99,ENE,69,3.0,5.0,80,0.00,,---,0.00,VWS V14.01,2013-01-24 11:53:00,
2013-01-24 06:58:00,33.0,26.9,30.00,NE,51,2.0,5.0,78,0.00,,---,0.00,VWS V14.01,2013-01-24 11:58:00,
2013-01-24 07:00:00,33.2,26.8,30.00,NNE,26,0.0,5.0,77,0.00,,---,0.00,VWS V14.01,2013-01-24 12:00:00,
2013-01-24 07:03:00,33.4,26.7,30.00,NNE,26,0.0,1.0,76,0.00,,---,0.00,VWS V14.01,2013-01-24 12:03:00,
2013-01-24 07:08:00,33.7,26.3,30.00,NNE,32,0.0,4.0,74,0.00,,---,0.00,VWS V14.01,2013-01-24 12:08:00,
2013-01-24 07:13:00,34.0,26.3,30.01,NNE,32,0.0,4.0,73,0.00,,---,0.00,VWS V14.01,2013-01-24 12:13:00,
2013-01-24 07:18:00,34.2,25.8,30.01,NNE,32,0.0,4.0,71,0.00,,---,0.00,VWS V14.01,2013-01-24 12:18:00,
2013-01-24 07:23:00,34.3,25.5,30.01,East,80,0.0,4.0,70,0.00,,---,0.00,VWS V14.01,2013-01-24 12:23:00,
2013-01-24 07:28:00,34.4,25.3,30.02,NNE,17,1.0,5.0,69,0.00,,---,0.00,VWS V14.01,2013-01-24 12:28:00,
2013-01-24 07:30:00,34.5,25.4,30.02,NNE,17,0.0,5.0,69,0.00,,---,0.00,VWS V14.01,2013-01-24 12:30:00,
2013-01-24 07:33:00,34.6,25.5,30.03,NNE,17,0.0,1.0,69,0.00,,---,0.00,VWS V14.01,2013-01-24 12:33:00,
2013-01-24 07:38:00,34.7,25.2,30.03,NE,42,1.0,3.0,68,0.00,,---,0.00,VWS V14.01,2013-01-24 12:38:00,
2013-01-24 07:43:00,34.8,25.3,30.04,NE,43,0.0,4.0,68,0.00,,---,0.00,VWS V14.01,2013-01-24 12:43:00,
2013-01-24 07:48:00,34.8,25.0,30.04,East,92,0.0,4.0,67,0.00,,---,0.00,VWS V14.01,2013-01-24 12:48:00,
2013-01-24 07:53:00,34.9,24.7,30.04,North,355,3.0,4.0,66,0.00,,---,0.00,VWS V14.01,2013-01-24 12:53:00,
2013-01-24 07:58:00,35.0,24.4,30.04,North,360,1.0,4.0,65,0.00,,---,0.00,VWS V14.01,2013-01-24 12:58:00,
2013-01-24 08:00:00,35.0,24.4,30.04,NNE,32,2.0,4.0,65,0.00,,---,0.00,VWS V14.01,2013-01-24 13:00:00,
2013-01-24 08:03:00,35.0,24.4,30.05,NE,47,0.0,2.0,65,0.00,,---,0.00,VWS V14.01,2013-01-24 13:03:00,
2013-01-24 08:08:00,35.1,23.8,30.05,SE,126,1.0,5.0,63,0.00,,---,0.00,VWS V14.01,2013-01-24 13:08:00,
2013-01-24 08:13:00,35.2,23.5,30.06,NE,40,6.0,6.0,62,0.00,,---,0.00,VWS V14.01,2013-01-24 13:13:00,
2013-01-24 08:18:00,35.3,23.6,30.06,NE,40,0.0,6.0,62,0.00,,---,0.00,VWS V14.01,2013-01-24 13:18:00,
2013-01-24 08:23:00,35.3,23.2,30.07,NNW,343,0.0,6.0,61,0.00,,---,0.00,VWS V14.01,2013-01-24 13:23:00,
2013-01-24 08:28:00,35.3,23.2,30.07,NW,308,3.0,6.0,61,0.00,,---,0.00,VWS V14.01,2013-01-24 13:28:00,
2013-01-24 08:30:00,35.4,22.9,30.07,North,10,7.0,7.0,60,0.00,,---,0.00,VWS V14.01,2013-01-24 13:30:00,
2013-01-24 08:33:00,35.4,22.9,30.08,ENE,60,2.0,7.0,60,0.00,,---,0.00,VWS V14.01,2013-01-24 13:33:00,
2013-01-24 08:38:00,35.4,22.9,30.08,NE,55,1.0,7.0,60,0.00,,---,0.00,VWS V14.01,2013-01-24 13:38:00,
2013-01-24 08:43:00,35.3,22.8,30.08,North,360,3.0,7.0,60,0.00,,---,0.00,VWS V14.01,2013-01-24 13:43:00,
2013-01-24 08:48:00,35.2,22.7,30.09,ESE,107,0.0,7.0,60,0.00,,---,0.00,VWS V14.01,2013-01-24 13:48:00,
2013-01-24 08:53:00,35.1,22.6,30.10,East,92,2.0,7.0,60,0.00,,---,0.00,VWS V14.01,2013-01-24 13:53:00,
2013-01-24 08:58:00,35.0,22.1,30.10,East,86,0.0,7.0,59,0.00,,---,0.00,VWS V14.01,2013-01-24 13:58:00,
2013-01-24 09:00:00,34.9,22.0,30.10,East,93,2.0,7.0,59,0.00,,---,0.00,VWS V14.01,2013-01-24 14:00:00,
2013-01-24 09:03:00,34.9,22.0,30.10,NE,37,2.0,5.0,59,0.00,,---,0.00,VWS V14.01,2013-01-24 14:03:00,
2013-01-24 09:08:00,34.8,22.0,30.12,ENE,63,0.0,5.0,59,0.00,,---,0.00,VWS V14.01,2013-01-24 14:08:00,
2013-01-24 09:13:00,34.8,22.0,30.12,NNE,30,2.0,5.0,59,0.00,,---,0.00,VWS V14.01,2013-01-24 14:13:00,
2013-01-24 09:18:00,34.9,21.6,30.12,NNE,24,0.0,6.0,58,0.00,,---,0.00,VWS V14.01,2013-01-24 14:18:00,
2013-01-24 09:23:00,35.2,21.9,30.13,NNE,27,0.0,6.0,58,0.00,,---,0.00,VWS V14.01,2013-01-24 14:23:00,
2013-01-24 09:28:00,35.6,21.9,30.13,NNE,28,0.0,6.0,57,0.00,,---,0.00,VWS V14.01,2013-01-24 14:28:00,
2013-01-24 09:30:00,35.9,22.2,30.13,North,5,0.0,6.0,57,0.00,,---,0.00,VWS V14.01,2013-01-24 14:30:00,
2013-01-24 09:33:00,36.1,21.9,30.13,NW,304,3.0,4.0,56,0.00,,---,0.00,VWS V14.01,2013-01-24 14:33:00,
2013-01-24 09:38:00,36.5,22.3,30.14,North,5,1.0,6.0,56,0.00,,---,0.00,VWS V14.01,2013-01-24 14:38:00,
2013-01-24 09:43:00,36.9,21.8,30.14,NE,50,3.0,13.0,54,0.00,,---,0.00,VWS V14.01,2013-01-24 14:43:00,
2013-01-24 09:48:00,37.1,21.6,30.15,WNW,283,1.0,13.0,53,0.00,,---,0.00,VWS V14.01,2013-01-24 14:48:00,
2013-01-24 09:53:00,37.1,21.1,30.15,WNW,293,3.0,13.0,52,0.00,,---,0.00,VWS V14.01,2013-01-24 14:53:00,
2013-01-24 09:58:00,37.0,21.0,30.16,NNW,331,3.0,13.0,52,0.00,,---,0.00,VWS V14.01,2013-01-24 14:58:00,
2013-01-24 10:00:00,37.0,21.0,30.16,NNE,32,0.0,13.0,52,0.00,,---,0.00,VWS V14.01,2013-01-24 15:00:00,
2013-01-24 10:03:00,37.0,21.0,30.16,WNW,290,5.0,6.0,52,0.00,,---,0.00,VWS V14.01,2013-01-24 15:03:00,
2013-01-24 10:08:00,37.1,21.6,30.17,ENE,74,2.0,6.0,53,0.00,,---,0.00,VWS V14.01,2013-01-24 15:08:00,
2013-01-24 10:13:00,37.2,20.3,30.17,West,275,5.0,7.0,50,0.00,,---,0.00,VWS V14.01,2013-01-24 15:13:00,
2013-01-24 10:18:00,37.4,20.9,30.17,NW,324,7.0,9.0,51,0.00,,---,0.00,VWS V14.01,2013-01-24 15:18:00,
2013-01-24 10:23:00,37.6,20.2,30.17,NE,44,7.0,9.0,49,0.00,,---,0.00,VWS V14.01,2013-01-24 15:23:00,
2013-01-24 10:28:00,37.7,19.8,30.17,NNE,13,1.0,9.0,48,0.00,,---,0.00,VWS V14.01,2013-01-24 15:28:00,
2013-01-24 10:30:00,37.7,20.3,30.17,NE,40,5.0,9.0,49,0.00,,---,0.00,VWS V14.01,2013-01-24 15:30:00,
2013-01-24 10:33:00,37.7,19.8,30.17,ENE,59,5.0,5.0,48,0.00,,---,0.00,VWS V14.01,2013-01-24 15:33:00,
2013-01-24 10:38:00,37.8,19.4,30.17,NE,41,2.0,9.0,47,0.00,,---,0.00,VWS V14.01,2013-01-24 15:38:00,
2013-01-24 10:43:00,37.8,19.4,30.18,North,360,2.0,11.0,47,0.00,,---,0.00,VWS V14.01,2013-01-24 15:43:00,
2013-01-24 10:48:00,37.8,19.4,30.18,NE,42,1.0,11.0,47,0.00,,---,0.00,VWS V14.01,2013-01-24 15:48:00,
2013-01-24 10:53:00,37.8,19.4,30.18,ENE,57,1.0,11.0,47,0.00,,---,0.00,VWS V14.01,2013-01-24 15:53:00,
2013-01-24 10:58:00,37.8,19.9,30.18,East,81,3.0,11.0,48,0.00,,---,0.00,VWS V14.01,2013-01-24 15:58:00,
2013-01-24 11:00:00,37.8,19.4,30.19,NE,44,4.0,11.0,47,0.00,,---,0.00,VWS V14.01,2013-01-24 16:00:00,
2013-01-24 11:03:00,38.0,20.1,30.19,NE,38,9.0,9.0,48,0.00,,---,0.00,VWS V14.01,2013-01-24 16:03:00,
2013-01-24 11:08:00,38.3,19.9,30.19,NW,313,2.0,9.0,47,0.00,,---,0.00,VWS V14.01,2013-01-24 16:08:00,
2013-01-24 11:13:00,38.6,20.1,30.20,North,355,3.0,9.0,47,0.00,,---,0.00,VWS V14.01,2013-01-24 16:13:00,
2013-01-24 11:18:00,38.6,19.6,30.20,ENE,70,3.0,10.0,46,0.00,,---,0.00,VWS V14.01,2013-01-24 16:18:00,
2013-01-24 11:23:00,38.7,19.7,30.20,North,11,5.0,10.0,46,0.00,,---,0.00,VWS V14.01,2013-01-24 16:23:00,
2013-01-24 11:28:00,38.8,19.8,30.20,ENE,62,2.0,13.0,46,0.00,,---,0.00,VWS V14.01,2013-01-24 16:28:00,
2013-01-24 11:30:00,38.9,19.4,30.21,WNW,298,9.0,13.0,45,0.00,,---,0.00,VWS V14.01,2013-01-24 16:30:00,
2013-01-24 11:33:00,39.0,19.0,30.21,NNE,20,4.0,9.0,44,0.00,,---,0.00,VWS V14.01,2013-01-24 16:33:00,
2013-01-24 11:38:00,38.9,18.3,30.21,NNW,348,2.0,9.0,43,0.00,,---,0.00,VWS V14.01,2013-01-24 16:38:00,
2013-01-24 11:43:00,38.8,17.1,30.21,ENE,61,5.0,13.0,41,0.00,,---,0.00,VWS V14.01,2013-01-24 16:43:00,
2013-01-24 11:48:00,38.6,16.4,30.22,WNW,288,5.0,13.0,40,0.00,,---,0.00,VWS V14.01,2013-01-24 16:48:00,
2013-01-24 11:53:00,38.7,15.9,30.22,North,5,3.0,13.0,39,0.00,,---,0.00,VWS V14.01,2013-01-24 16:53:00,
2013-01-24 11:58:00,38.7,15.9,30.23,NE,34,2.0,13.0,39,0.00,,---,0.00,VWS V14.01,2013-01-24 16:58:00,
2013-01-24 12:00:00,38.6,16.4,30.23,East,86,2.0,15.0,40,0.00,,---,0.00,VWS V14.01,2013-01-24 17:00:00,
2013-01-24 12:03:00,38.6,17.0,30.23,NE,49,4.0,6.0,41,0.00,,---,0.00,VWS V14.01,2013-01-24 17:03:00,
2013-01-24 12:08:00,38.4,16.2,30.23,NNE,12,1.0,11.0,40,0.00,,---,0.00,VWS V14.01,2013-01-24 17:08:00,
2013-01-24 12:13:00,38.4,16.2,30.23,NNW,334,1.0,11.0,40,0.00,,---,0.00,VWS V14.01,2013-01-24 17:13:00,
2013-01-24 12:18:00,38.5,15.7,30.23,NE,53,8.0,12.0,39,0.00,,---,0.00,VWS V14.01,2013-01-24 17:18:00,
2013-01-24 12:23:00,38.4,15.6,30.24,ENE,61,5.0,12.0,39,0.00,,---,0.00,VWS V14.01,2013-01-24 17:23:00,
2013-01-24 12:28:00,38.6,15.8,30.24,NE,51,1.0,12.0,39,0.00,,---,0.00,VWS V14.01,2013-01-24 17:28:00,
2013-01-24 12:30:00,38.7,15.3,30.24,NE,39,3.0,12.0,38,0.00,,---,0.00,VWS V14.01,2013-01-24 17:30:00,
2013-01-24 12:33:00,38.7,15.9,30.24,NNE,12,6.0,12.0,39,0.00,,---,0.00,VWS V14.01,2013-01-24 17:33:00,
2013-01-24 12:38:00,38.6,15.8,30.24,NE,53,2.0,12.0,39,0.00,,---,0.00,VWS V14.01,2013-01-24 17:38:00,
2013-01-24 12:43:00,38.4,15.6,30.24,ESE,106,7.0,12.0,39,0.00,,---,0.00,VWS V14.01,2013-01-24 17:43:00,
2013-01-24 12:48:00,38.2,16.0,30.24,NE,55,4.0,12.0,40,0.00,,---,0.00,VWS V14.01,2013-01-24 17:48:00,
2013-01-24 12:53:00,38.1,15.4,30.24,East,99,2.0,12.0,39,0.00,,---,0.00,VWS V14.01,2013-01-24 17:53:00,
2013-01-24 12:58:00,37.9,14.6,30.25,ESE,102,2.0,12.0,38,0.00,,---,0.00,VWS V14.01,2013-01-24 17:58:00,
2013-01-24 13:00:00,37.5,14.2,30.25,North,5,3.0,12.0,38,0.00,,---,0.00,VWS V14.01,2013-01-24 18:00:00,
2013-01-24 13:03:00,37.5,14.2,30.25,WNW,286,4.0,10.0,38,0.00,,---,0.00,VWS V14.01,2013-01-24 18:03:00,
2013-01-24 13:08:00,37.1,13.2,30.25,NE,46,2.0,10.0,37,0.00,,---,0.00,VWS V14.01,2013-01-24 18:08:00,
2013-01-24 13:13:00,37.0,13.8,30.26,NNE,33,1.0,10.0,38,0.00,,---,0.00,VWS V14.01,2013-01-24 18:13:00,
2013-01-24 13:18:00,37.1,13.2,30.26,NE,38,4.0,10.0,37,0.00,,---,0.00,VWS V14.01,2013-01-24 18:18:00,
2013-01-24 13:23:00,37.3,13.4,30.26,NNE,29,5.0,10.0,37,0.00,,---,0.00,VWS V14.01,2013-01-24 18:23:00,
2013-01-24 13:28:00,37.2,13.3,30.27,WNW,298,6.0,10.0,37,0.00,,---,0.00,VWS V14.01,2013-01-24 18:28:00,
2013-01-24 13:30:00,37.0,12.5,30.27,ENE,60,4.0,10.0,36,0.00,,---,0.00,VWS V14.01,2013-01-24 18:30:00,
2013-01-24 13:33:00,37.0,12.5,30.27,NE,38,7.0,7.0,36,0.00,,---,0.00,VWS V14.01,2013-01-24 18:33:00,
2013-01-24 13:38:00,36.7,11.6,30.27,WSW,244,10.0,11.0,35,0.00,,---,0.00,VWS V14.01,2013-01-24 18:38:00,
2013-01-24 13:43:00,36.6,11.6,30.27,NNE,18,3.0,11.0,35,0.00,,---,0.00,VWS V14.01,2013-01-24 18:43:00,
2013-01-24 13:48:00,36.5,11.5,30.28,NNW,346,4.0,11.0,35,0.00,,---,0.00,VWS V14.01,2013-01-24 18:48:00,
2013-01-24 13:53:00,36.3,10.6,30.28,NNE,27,1.0,11.0,34,0.00,,---,0.00,VWS V14.01,2013-01-24 18:53:00,
2013-01-24 13:58:00,36.4,11.4,30.28,WNW,302,0.0,11.0,35,0.00,,---,0.00,VWS V14.01,2013-01-24 18:58:00,
2013-01-24 14:00:00,36.4,11.4,30.29,South,185,1.0,11.0,35,0.00,,---,0.00,VWS V14.01,2013-01-24 19:00:00,
2013-01-24 14:03:00,36.3,10.6,30.28,NW,306,1.0,5.0,34,0.00,,---,0.00,VWS V14.01,2013-01-24 19:03:00,
2013-01-24 14:08:00,36.2,11.2,30.28,NE,46,1.0,10.0,35,0.00,,---,0.00,VWS V14.01,2013-01-24 19:08:00,
2013-01-24 14:13:00,36.2,11.2,30.29,NE,50,4.0,10.0,35,0.00,,---,0.00,VWS V14.01,2013-01-24 19:13:00,
2013-01-24 14:18:00,36.4,11.4,30.29,NW,306,4.0,13.0,35,0.00,,---,0.00,VWS V14.01,2013-01-24 19:18:00,
2013-01-24 14:23:00,36.6,10.9,30.30,North,360,1.0,13.0,34,0.00,,---,0.00,VWS V14.01,2013-01-24 19:23:00,
2013-01-24 14:28:00,36.5,10.1,30.30,East,91,2.0,13.0,33,0.00,,---,0.00,VWS V14.01,2013-01-24 19:28:00,
2013-01-24 14:30:00,36.4,11.4,30.30,WNW,303,3.0,13.0,35,0.00,,---,0.00,VWS V14.01,2013-01-24 19:30:00,
2013-01-24 14:33:00,36.4,10.1,30.31,NE,48,0.0,9.0,33,0.00,,---,0.00,VWS V14.01,2013-01-24 19:33:00,
2013-01-24 14:38:00,36.3,10.6,30.30,ENE,68,1.0,9.0,34,0.00,,---,0.00,VWS V14.01,2013-01-24 19:38:00,
2013-01-24 14:43:00,36.2,9.9,30.30,ENE,67,2.0,11.0,33,0.00,,---,0.00,VWS V14.01,2013-01-24 19:43:00,
2013-01-24 14:48:00,35.9,8.9,30.31,ENE,75,4.0,11.0,32,0.00,,---,0.00,VWS V14.01,2013-01-24 19:48:00,
2013-01-24 14:53:00,35.6,8.7,30.31,NE,53,5.0,11.0,32,0.00,,---,0.00,VWS V14.01,2013-01-24 19:53:00,
2013-01-24 14:58:00,35.7,8.8,30.31,NNW,347,1.0,11.0,32,0.00,,---,0.00,VWS V14.01,2013-01-24 19:58:00,
2013-01-24 15:00:00,35.7,8.8,30.32,East,95,3.0,11.0,32,0.00,,---,0.00,VWS V14.01,2013-01-24 20:00:00,
2013-01-24 15:03:00,35.7,8.8,30.32,NNE,33,1.0,6.0,32,0.00,,---,0.00,VWS V14.01,2013-01-24 20:03:00,
2013-01-24 15:08:00,35.7,8.8,30.32,NW,306,6.0,6.0,32,0.00,,---,0.00,VWS V14.01,2013-01-24 20:08:00,
2013-01-24 15:13:00,35.7,8.8,30.32,NE,38,5.0,6.0,32,0.00,,---,0.00,VWS V14.01,2013-01-24 20:13:00,
2013-01-24 15:18:00,35.7,8.1,30.32,NW,305,1.0,6.0,31,0.00,,---,0.00,VWS V14.01,2013-01-24 20:18:00,
2013-01-24 15:23:00,35.6,8.0,30.32,NE,38,2.0,9.0,31,0.00,,---,0.00,VWS V14.01,2013-01-24 20:23:00,
2013-01-24 15:28:00,35.5,7.9,30.32,NW,315,0.0,9.0,31,0.00,,---,0.00,VWS V14.01,2013-01-24 20:28:00,
2013-01-24 15:30:00,35.5,7.9,30.33,NNE,26,1.0,9.0,31,0.00,,---,0.00,VWS V14.01,2013-01-24 20:30:00,
2013-01-24 15:33:00,35.5,7.9,30.33,NNE,32,2.0,2.0,31,0.00,,---,0.00,VWS V14.01,2013-01-24 20:33:00,
2013-01-24 15:37:00,35.5,8.6,30.33,NNE,25,1.0,6.0,32,0.00,,---,0.00,VWS V14.01,2013-01-24 20:37:00,
2013-01-24 15:42:00,35.5,8.6,30.33,NNW,327,0.0,6.0,32,0.00,,---,0.00,VWS V14.01,2013-01-24 20:42:00,
2013-01-24 15:47:00,35.6,8.7,30.33,ENE,68,3.0,6.0,32,0.00,,---,0.00,VWS V14.01,2013-01-24 20:47:00,
2013-01-24 15:52:00,35.5,7.9,30.34,NE,34,1.0,7.0,31,0.00,,---,0.00,VWS V14.01,2013-01-24 20:52:00,
2013-01-24 15:57:00,35.3,7.7,30.34,NNE,17,1.0,9.0,31,0.00,,---,0.00,VWS V14.01,2013-01-24 20:57:00,
2013-01-24 16:00:00,35.2,6.9,30.34,NNE,17,3.0,9.0,30,0.00,,---,0.00,VWS V14.01,2013-01-24 21:00:00,
2013-01-24 16:02:00,35.1,6.8,30.34,ENE,72,8.0,8.0,30,0.00,,---,0.00,VWS V14.01,2013-01-24 21:02:00,
2013-01-24 16:07:00,34.8,6.5,30.34,NE,47,3.0,8.0,30,0.00,,---,0.00,VWS V14.01,2013-01-24 21:07:00,
2013-01-24 16:12:00,34.4,6.2,30.35,NW,323,0.0,9.0,30,0.00,,---,0.00,VWS V14.01,2013-01-24 21:12:00,
2013-01-24 16:17:00,34.3,6.8,30.34,NE,43,1.0,9.0,31,0.00,,---,0.00,VWS V14.01,2013-01-24 21:17:00,
2013-01-24 16:22:00,34.2,6.7,30.35,ENE,57,2.0,10.0,31,0.00,,---,0.00,VWS V14.01,2013-01-24 21:22:00,
2013-01-24 16:27:00,34.1,6.6,30.35,North,11,1.0,10.0,31,0.00,,---,0.00,VWS V14.01,2013-01-24 21:27:00,
2013-01-24 16:30:00,34.1,6.6,30.36,NE,37,3.0,10.0,31,0.00,,---,0.00,VWS V14.01,2013-01-24 21:30:00,
2013-01-24 16:32:00,34.1,6.6,30.35,NNW,329,1.0,3.0,31,0.00,,---,0.00,VWS V14.01,2013-01-24 21:32:00,
2013-01-24 16:37:00,34.0,6.6,30.36,NW,307,1.0,6.0,31,0.00,,---,0.00,VWS V14.01,2013-01-24 21:37:00,
2013-01-24 16:42:00,33.9,5.8,30.36,ENE,68,1.0,6.0,30,0.00,,---,0.00,VWS V14.01,2013-01-24 21:42:00,
2013-01-24 16:47:00,33.7,6.3,30.35,NNW,344,3.0,6.0,31,0.00,,---,0.00,VWS V14.01,2013-01-24 21:47:00,
2013-01-24 16:52:00,33.4,6.0,30.36,WNW,296,0.0,6.0,31,0.00,,---,0.00,VWS V14.01,2013-01-24 21:52:00,
2013-01-24 16:57:00,33.3,5.9,30.36,WNW,301,4.0,8.0,31,0.00,,---,0.00,VWS V14.01,2013-01-24 21:57:00,
2013-01-24 17:00:00,33.1,5.8,30.36,NW,306,1.0,8.0,31,0.00,,---,0.00,VWS V14.01,2013-01-24 22:00:00,
2013-01-24 17:02:00,33.0,5.7,30.37,NW,306,1.0,2.0,31,0.00,,---,0.00,VWS V14.01,2013-01-24 22:02:00,
2013-01-24 17:07:00,32.9,7.0,30.38,WNW,287,0.0,3.0,33,0.00,,---,0.00,VWS V14.01,2013-01-24 22:07:00,
2013-01-24 17:12:00,32.7,6.1,30.38,North,350,0.0,3.0,32,0.00,,---,0.00,VWS V14.01,2013-01-24 22:12:00,
2013-01-24 17:17:00,32.6,6.7,30.38,North,350,0.0,3.0,33,0.00,,---,0.00,VWS V14.01,2013-01-24 22:17:00,
2013-01-24 17:22:00,32.5,7.3,30.38,WSW,258,3.0,4.0,34,0.00,,---,0.00,VWS V14.01,2013-01-24 22:22:00,
2013-01-24 17:27:00,32.3,7.1,30.38,NNW,336,0.0,4.0,34,0.00,,---,0.00,VWS V14.01,2013-01-24 22:27:00,
2013-01-24 17:30:00,32.2,7.0,30.38,NNW,336,1.0,4.0,34,0.00,,---,0.00,VWS V14.01,2013-01-24 22:30:00,
2013-01-24 17:32:00,32.1,6.9,30.38,North,5,0.0,1.0,34,0.00,,---,0.00,VWS V14.01,2013-01-24 22:32:00,
2013-01-24 17:37:00,31.9,6.7,30.38,North,5,0.0,1.0,34,0.00,,---,0.00,VWS V14.01,2013-01-24 22:37:00,
2013-01-24 17:42:00,31.7,6.6,30.38,East,83,0.0,2.0,34,0.00,,---,0.00,VWS V14.01,2013-01-24 22:42:00,
2013-01-24 17:47:00,31.6,6.5,30.39,ENE,63,0.0,2.0,34,0.00,,---,0.00,VWS V14.01,2013-01-24 22:47:00,
2013-01-24 17:52:00,31.4,7.6,30.39,ENE,63,0.0,2.0,36,0.00,,---,0.00,VWS V14.01,2013-01-24 22:52:00,
2013-01-24 17:57:00,31.3,6.2,30.39,ENE,63,0.0,2.0,34,0.00,,---,0.00,VWS V14.01,2013-01-24 22:57:00,
2013-01-24 18:00:00,31.2,6.8,30.39,ENE,63,0.0,2.0,35,0.00,,---,0.00,VWS V14.01,2013-01-24 23:00:00,
2013-01-24 18:02:00,31.1,6.0,30.39,ENE,63,0.0,1.0,34,0.00,,---,0.00,VWS V14.01,2013-01-24 23:02:00,
2013-01-24 18:07:00,31.0,5.9,30.39,ENE,63,0.0,1.0,34,0.00,,---,0.00,VWS V14.01,2013-01-24 23:07:00,
2013-01-24 18:12:00,30.8,6.4,30.40,ENE,63,0.0,1.0,35,0.00,,---,0.00,VWS V14.01,2013-01-24 23:12:00,
2013-01-24 18:17:00,30.7,6.9,30.40,ENE,63,0.0,1.0,36,0.00,,---,0.00,VWS V14.01,2013-01-24 23:17:00,
2013-01-24 18:22:00,30.5,7.3,30.40,ENE,63,0.0,1.0,37,0.00,,---,0.00,VWS V14.01,2013-01-24 23:22:00,
2013-01-24 18:27:00,30.4,7.3,30.40,ENE,63,0.0,1.0,37,0.00,,---,0.00,VWS V14.01,2013-01-24 23:27:00,
2013-01-24 18:30:00,30.3,7.8,30.41,ENE,63,0.0,1.0,38,0.00,,---,0.00,VWS V14.01,2013-01-24 23:30:00,
2013-01-24 18:32:00,30.2,7.7,30.41,ENE,63,0.0,0.0,38,0.00,,---,0.00,VWS V14.01,2013-01-24 23:32:00,
2013-01-24 18:37:00,30.1,8.1,30.41,ENE,63,0.0,0.0,39,0.00,,---,0.00,VWS V14.01,2013-01-24 23:37:00,
2013-01-24 18:42:00,30.0,9.2,30.41,ENE,63,0.0,0.0,41,0.00,,---,0.00,VWS V14.01,2013-01-24 23:42:00,
2013-01-24 18:47:00,29.8,7.3,30.41,ENE,63,0.0,0.0,38,0.00,,---,0.00,VWS V14.01,2013-01-24 23:47:00,
2013-01-24 18:52:00,29.6,8.3,30.42,ENE,63,0.0,0.0,40,0.00,,---,0.00,VWS V14.01,2013-01-24 23:52:00,
2013-01-24 18:57:00,29.5,8.2,30.42,ENE,63,0.0,0.0,40,0.00,,---,0.00,VWS V14.01,2013-01-24 23:57:00,
2013-01-24 19:00:00,29.4,9.2,30.42,ENE,63,0.0,0.0,42,0.00,,---,0.00,VWS V14.01,2013-01-25 00:00:00,
2013-01-24 19:02:00,29.4,9.2,30.42,ENE,63,0.0,0.0,42,0.00,,---,0.00,VWS V14.01,2013-01-25 00:02:00,
2013-01-24 19:07:00,29.3,8.0,30.42,ENE,63,0.0,0.0,40,0.00,,---,0.00,VWS V14.01,2013-01-25 00:07:00,
2013-01-24 19:12:00,29.1,7.8,30.42,ENE,63,0.0,0.0,40,0.00,,---,0.00,VWS V14.01,2013-01-25 00:12:00,
2013-01-24 19:17:00,29.0,8.8,30.42,ENE,63,0.0,0.0,42,0.00,,---,0.00,VWS V14.01,2013-01-25 00:17:00,
2013-01-24 19:22:00,28.9,7.6,30.43,ENE,63,0.0,0.0,40,0.00,,---,0.00,VWS V14.01,2013-01-25 00:22:00,
2013-01-24 19:27:00,28.8,9.1,30.42,ENE,63,0.0,0.0,43,0.00,,---,0.00,VWS V14.01,2013-01-25 00:27:00,
2013-01-24 19:30:00,28.8,9.1,30.43,NNE,17,0.0,3.0,43,0.00,,---,0.00,VWS V14.01,2013-01-25 00:30:00,
2013-01-24 19:32:00,28.7,8.5,30.43,NNE,17,0.0,1.0,42,0.00,,---,0.00,VWS V14.01,2013-01-25 00:32:00,
2013-01-24 19:37:00,28.7,8.0,30.43,NE,44,0.0,2.0,41,0.00,,---,0.00,VWS V14.01,2013-01-25 00:37:00,
2013-01-24 19:42:00,28.7,7.4,30.43,NE,44,1.0,2.0,40,0.00,,---,0.00,VWS V14.01,2013-01-25 00:42:00,
2013-01-24 19:47:00,28.7,8.0,30.43,NE,44,0.0,2.0,41,0.00,,---,0.00,VWS V14.01,2013-01-25 00:47:00,
2013-01-24 19:52:00,28.7,8.5,30.43,NE,44,0.0,2.0,42,0.00,,---,0.00,VWS V14.01,2013-01-25 00:52:00,
2013-01-24 19:57:00,28.6,7.3,30.43,NE,44,0.0,2.0,40,0.00,,---,0.00,VWS V14.01,2013-01-25 00:57:00,
2013-01-24 20:00:00,28.6,7.3,30.43,NE,44,0.0,2.0,40,0.00,,---,0.00,VWS V14.01,2013-01-25 01:00:00,
2013-01-24 20:02:00,28.5,7.8,30.43,NE,44,0.0,0.0,41,0.00,,---,0.00,VWS V14.01,2013-01-25 01:02:00,
2013-01-24 20:07:00,28.5,7.3,30.43,NNE,18,0.0,3.0,40,0.00,,---,0.00,VWS V14.01,2013-01-25 01:07:00,
2013-01-24 20:12:00,28.4,8.2,30.43,NNE,18,0.0,3.0,42,0.00,,---,0.00,VWS V14.01,2013-01-25 01:12:00,
2013-01-24 20:17:00,28.3,7.1,30.44,NE,48,0.0,3.0,40,0.00,,---,0.00,VWS V14.01,2013-01-25 01:17:00,
2013-01-24 20:22:00,28.2,7.0,30.44,NE,48,0.0,3.0,40,0.00,,---,0.00,VWS V14.01,2013-01-25 01:22:00,
2013-01-24 20:27:00,28.2,7.0,30.43,NE,48,0.0,3.0,40,0.00,,---,0.00,VWS V14.01,2013-01-25 01:27:00,
2013-01-24 20:30:00,28.1,7.4,30.43,NE,48,0.0,3.0,41,0.00,,---,0.00,VWS V14.01,2013-01-25 01:30:00,
2013-01-24 20:32:00,28.1,7.4,30.44,NE,48,0.0,0.0,41,0.00,,---,0.00,VWS V14.01,2013-01-25 01:32:00,
2013-01-24 20:37:00,28.0,6.3,30.44,ESE,113,0.0,2.0,39,0.00,,---,0.00,VWS V14.01,2013-01-25 01:37:00,
2013-01-24 20:42:00,28.1,6.9,30.44,ESE,113,0.0,2.0,40,0.00,,---,0.00,VWS V14.01,2013-01-25 01:42:00,
2013-01-24 20:47:00,28.1,6.9,30.43,ESE,113,0.0,2.0,40,0.00,,---,0.00,VWS V14.01,2013-01-25 01:47:00,
2013-01-24 20:52:00,28.0,6.8,30.44,ENE,67,0.0,2.0,40,0.00,,---,0.00,VWS V14.01,2013-01-25 01:52:00,
2013-01-24 20:57:00,27.9,6.2,30.44,ENE,67,0.0,2.0,39,0.00,,---,0.00,VWS V14.01,2013-01-25 01:57:00,
2013-01-24 21:00:00,27.9,7.3,30.44,ENE,67,0.0,2.0,41,0.00,,---,0.00,VWS V14.01,2013-01-25 02:00:00,
2013-01-24 21:02:00,27.9,7.8,30.44,ENE,67,0.0,1.0,42,0.00,,---,0.00,VWS V14.01,2013-01-25 02:02:00,
2013-01-24 21:07:00,27.8,7.7,30.44,ENE,67,0.0,1.0,42,0.00,,---,0.00,VWS V14.01,2013-01-25 02:07:00,
2013-01-24 21:12:00,27.8,6.6,30.44,ENE,67,0.0,1.0,40,0.00,,---,0.00,VWS V14.01,2013-01-25 02:12:00,
2013-01-24 21:17:00,27.6,6.4,30.45,ENE,67,0.0,1.0,40,0.00,,---,0.00,VWS V14.01,2013-01-25 02:17:00,
2013-01-24 21:22:00,27.6,7.0,30.44,ENE,67,0.0,1.0,41,0.00,,---,0.00,VWS V14.01,2013-01-25 02:22:00,
2013-01-24 21:27:00,27.5,7.4,30.44,ENE,67,0.0,1.0,42,0.00,,---,0.00,VWS V14.01,2013-01-25 02:27:00,
2013-01-24 21:30:00,27.4,7.9,30.44,ENE,67,0.0,1.0,43,0.00,,---,0.00,VWS V14.01,2013-01-25 02:30:00,
2013-01-24 21:32:00,27.3,7.2,30.43,ENE,67,0.0,0.0,42,0.00,,---,0.00,VWS V14.01,2013-01-25 02:32:00,
2013-01-24 21:37:00,27.1,6.5,30.44,ENE,67,0.0,0.0,41,0.00,,---,0.00,VWS V14.01,2013-01-25 02:37:00,
2013-01-24 21:42:00,27.0,8.0,30.44,ENE,67,0.0,0.0,44,0.00,,---,0.00,VWS V14.01,2013-01-25 02:42:00,
2013-01-24 21:47:00,26.8,7.8,30.44,ENE,67,0.0,0.0,44,0.00,,---,0.00,VWS V14.01,2013-01-25 02:47:00,
2013-01-24 21:52:00,26.6,7.6,30.43,ENE,67,0.0,1.0,44,0.00,,---,0.00,VWS V14.01,2013-01-25 02:52:00,
2013-01-24 21:57:00,26.5,8.5,30.44,ENE,67,0.0,1.0,46,0.00,,---,0.00,VWS V14.01,2013-01-25 02:57:00,
2013-01-24 22:00:00,26.4,7.9,30.43,ENE,67,0.0,1.0,45,0.00,,---,0.00,VWS V14.01,2013-01-25 03:00:00,
2013-01-24 22:02:00,26.4,7.5,30.43,ENE,67,0.0,0.0,44,0.00,,---,0.00,VWS V14.01,2013-01-25 03:02:00,
2013-01-24 22:07:00,26.3,7.9,30.43,ENE,67,0.0,0.0,45,0.00,,---,0.00,VWS V14.01,2013-01-25 03:07:00,
2013-01-24 22:12:00,26.2,9.2,30.44,ENE,67,0.0,0.0,48,0.00,,---,0.00,VWS V14.01,2013-01-25 03:12:00,
2013-01-24 22:17:00,25.9,9.4,30.44,ENE,67,0.0,1.0,49,0.00,,---,0.00,VWS V14.01,2013-01-25 03:17:00,
2013-01-24 22:22:00,25.7,9.6,30.44,ENE,67,0.0,1.0,50,0.00,,---,0.00,VWS V14.01,2013-01-25 03:22:00,
2013-01-24 22:27:00,25.6,9.1,30.45,ENE,67,0.0,1.0,49,0.00,,---,0.00,VWS V14.01,2013-01-25 03:27:00,
2013-01-24 22:30:00,25.5,9.0,30.45,ENE,67,0.0,1.0,49,0.00,,---,0.00,VWS V14.01,2013-01-25 03:30:00,
2013-01-24 22:32:00,25.4,8.9,30.44,East,100,0.0,2.0,49,0.00,,---,0.00,VWS V14.01,2013-01-25 03:32:00,
2013-01-24 22:37:00,25.3,10.1,30.44,East,100,0.0,2.0,52,0.00,,---,0.00,VWS V14.01,2013-01-25 03:37:00,
2013-01-24 22:42:00,25.2,10.5,30.44,East,87,0.0,2.0,53,0.00,,---,0.00,VWS V14.01,2013-01-25 03:42:00,
2013-01-24 22:47:00,25.2,9.6,30.44,East,87,0.0,2.0,51,0.00,,---,0.00,VWS V14.01,2013-01-25 03:47:00,
2013-01-24 22:52:00,25.0,10.7,30.44,East,87,0.0,2.0,54,0.00,,---,0.00,VWS V14.01,2013-01-25 03:52:00,
2013-01-24 22:57:00,24.9,12.2,30.45,East,87,0.0,2.0,58,0.00,,---,0.00,VWS V14.01,2013-01-25 03:57:00,
2013-01-24 23:00:00,24.7,10.4,30.44,East,98,0.0,2.0,54,0.00,,---,0.00,VWS V14.01,2013-01-25 04:00:00,
2013-01-24 23:02:00,24.7,10.4,30.44,East,98,0.0,0.0,54,0.00,,---,0.00,VWS V14.01,2013-01-25 04:02:00,
2013-01-24 23:07:00,24.6,10.3,30.44,East,98,0.0,1.0,54,0.00,,---,0.00,VWS V14.01,2013-01-25 04:07:00,
2013-01-24 23:12:00,24.6,11.2,30.44,NNE,19,0.0,1.0,56,0.00,,---,0.00,VWS V14.01,2013-01-25 04:12:00,
2013-01-24 23:17:00,24.7,9.6,30.44,East,98,0.0,2.0,52,0.00,,---,0.00,VWS V14.01,2013-01-25 04:17:00,
2013-01-24 23:22:00,24.8,10.1,30.44,East,98,0.0,2.0,53,0.00,,---,0.00,VWS V14.01,2013-01-25 04:22:00,
2013-01-24 23:27:00,25.0,9.4,30.44,NE,39,1.0,3.0,51,0.00,,---,0.00,VWS V14.01,2013-01-25 04:27:00,
2013-01-24 23:30:00,25.2,9.2,30.44,East,101,0.0,3.0,50,0.00,,---,0.00,VWS V14.01,2013-01-25 04:30:00,
2013-01-24 23:32:00,25.3,9.3,30.44,NE,45,1.0,2.0,50,0.00,,---,0.00,VWS V14.01,2013-01-25 04:32:00,
2013-01-24 23:37:00,25.4,8.9,30.44,NE,39,1.0,3.0,49,0.00,,---,0.00,VWS V14.01,2013-01-25 04:37:00,
2013-01-24 23:42:00,25.5,9.0,30.44,NE,49,1.0,4.0,49,0.00,,---,0.00,VWS V14.01,2013-01-25 04:42:00,
2013-01-24 23:47:00,25.7,9.2,30.44,ENE,76,0.0,4.0,49,0.00,,---,0.00,VWS V14.01,2013-01-25 04:47:00,
2013-01-24 23:52:00,25.7,8.7,30.44,ENE,76,0.0,4.0,48,0.00,,---,0.00,VWS V14.01,2013-01-25 04:52:00,
2013-01-24 23:57:00,25.7,8.3,30.44,East,93,0.0,4.0,47,0.00,,---,0.00,VWS V14.01,2013-01-25 04:57:00,